Tracking 19908 objects as of 19-Oct-2019
HD Live streaming from Space Station
objects crossing your sky now

ARIANE 44L+ R/B

Track ARIANE 44L+ R/B now!


NORAD ID: 23177
Int'l Code: 1994-040C
Perigee: 378.1 km
Apogee: 35,440.5 km
Inclination: 7.7 °
Period: 627.5 minutes
Semi major axis: 24280 km
RCS: 21.1995 m2 (large)
Launch date: July 8, 1994
Source: France (FR)
Launch site: FRENCH GUIANA (FRGUI)

Note: This is a ROCKET BODY
aabbcc
Your satellite tracking list
Your tracking list is empty




NASA's NSSDC Master Catalog

Two Line Element Set (TLE):
1 23177U 94040C   19291.65877350  .00000063  00000-0  42877-3 0  9990
2 23177   7.7292  25.3366 7220325 174.5873 203.0140  2.29467413208211
Source of the keplerian elements: AFSPC